User: anonymous   Login
Location: Stigler
(35.2540°N, 95.1230°W)
Time: 17:59:56
(UTC-05:00)
Language:

Cosmos 1805 - Orbit

View from above orbital plane
View from above orbital plane
View from above satellite
View from above satellite

Ground track
Ground track

The orbit data is extracted from the following two-line orbital elements,

1 17191U 86097A   16182.51228583  .00000111  00000-0  48007-5 0  9998
2 17191  82.4731  15.6912 0004298 186.9320 173.1851 15.11226557610527
Epoch (UTC): 30 June 2016 12:17:41
Eccentricity: 0.0004298
inclination: 82.4731°
perigee height: 529 km
apogee height: 535 km
right ascension of ascending node: 15.6912°
argument of perigee: 186.9320°
revolutions per day: 15.11226557
mean anomaly at epoch: 173.1851°
orbit number at epoch: 61052

The dashed part of the orbit path shows where the satellite is in the earth's shadow,  

DLR